Regional Weather Roundup
Issued by NWS

Home | Current Version | Previous Version | Text Only | Print | Product List | Glossary Off
Versions: 1 2 3 4 5 6 7 8 9 10 11 12 13 14 15 16 17 18 19 20 21 22 23 24 25 26 27 28 29 30 31 32 33 34 35 36 37 38 39 40 41 42 43 44 45 46 47 48 49 50

000
ASUS45 KABQ 180201
RWRNM
NEW MEXICO REGIONAL WEATHER ROUNDUP
NATIONAL WEATHER SERVICE ALBUQUERQUE NM
700 PM MST FRI NOV 17 2017

NOTE: "FAIR" MEANS FEW OR NO CLOUDS BELOW 12,000 FEET AGL WITH NO
       SIGNIFICANT WEATHER OR OBSTRUCTIONS TO VISION.

      THIS PRODUCT IS RELEASED AS TWO VERSIONS.  ONE VERSION NEAR
      THE TOP OF THE HOUR CONTAINING PRELIMINARY DATA FROM ALBUQUERQUE
      AND OTHER STATIONS.  A FINAL VERSION WITH ADDITIONAL DATA IS
      ISSUED ABOUT 10 MINUTES AFTER THE HOUR.

NMZ501-503-504-510>518-180300-
NORTHWEST PLATEAU/NORTHCENTRAL MOUNTAINS

CITY           SKY/WX    TMP DP  RH WIND       PRES   REMARKS
FARMINGTON     FAIR      52  34  50 SW14      29.89R
LOS ALAMOS     FAIR      50  35  55 SW14G25   29.97R
SANTA FE       MOCLDY    55  37  50 W20G35    29.96S
TAOS           CLOUDY    49  36  61 W22G32    29.95S
ANGEL FIRE     CLOUDY    42  35  74 SW28G37   29.95S

$$
NMZ402-403-502-505>509-180300-
WESTCENTRAL MOUNTAINS/SOUTHWEST MOUNTAINS

CITY           SKY/WX    TMP DP  RH WIND       PRES   REMARKS
GALLUP         FAIR      47  39  74 SW16      30.04R
GRANTS         FAIR      49  39  67 W18G26    30.03F
SILVER CITY    FAIR      59  21  23 W14       30.07R

$$
NMZ407-409-411-412-180300-
SOUTHERN DESERTS

CITY           SKY/WX    TMP DP  RH WIND       PRES   REMARKS
DEMING         FAIR      67  21  17 W12       30.01R
LAS CRUCES     FAIR      64  18  16 SW5       30.01R
HOLLOMAN AFB   FAIR      72  18  13 S9        29.98R
ALAMOGORDO     CLOUDY    72  18  13 SW9       29.99R
T OR C         FAIR      66  22  18 W9        29.99R

$$
NMZ519>523-180300-
CENTRAL VALLEYS/CENTRAL HIGHLANDS

CITY           SKY/WX    TMP DP  RH WIND       PRES   REMARKS
ALBUQUERQUE    MOCLDY    58  40  51 SW18G30   29.99R
DOUBLE EAGLE   PTCLDY    55  39  54 SW17G29   29.99F
MORIARTY ARPT  CLOUDY    58  39  49 W30G37    30.00R
CLINES CORNERS CLOUDY    53  34  48 W35G45    30.00R
BELEN          MOCLDY    59  35  41 W23G33    29.99F
SOCORRO        CLOUDY    64  33  32 N8        29.99R

$$
NMZ524>526-539-540-180300-
SOUTHCENTRAL MOUNTAINS

CITY           SKY/WX    TMP DP  RH WIND       PRES   REMARKS
RUIDOSO        FAIR      61  16  17 W24G35    30.04R

$$
NMZ527>531-180300-
NORTHEAST HIGHLANDS/NORTHEAST PLAINS

CITY           SKY/WX    TMP DP  RH WIND       PRES   REMARKS
LAS VEGAS      MOCLDY    50  36  58 SW29G43   29.90F
RATON          FAIR      51  33  50 SW13G23   29.79S
CLAYTON        FAIR      58  38  47 W15G28    29.73S

$$
NMZ532>537-180300-
EASTCENTRAL PLAINS

CITY           SKY/WX    TMP DP  RH WIND       PRES   REMARKS
SANTA ROSA     FAIR      68  36  30 W32G44    29.84S
TUCUMCARI      FAIR      62  32  32 W9        29.76S
CANNON AFB     FAIR      62  26  26 SW7       29.83R
CLOVIS AIRPORT FAIR      59  29  31 W7        29.82S

$$
NMZ028-029-538-180300-
SOUTHEAST PLAINS

CITY           SKY/WX    TMP DP  RH WIND       PRES   REMARKS
ROSWELL        FAIR      67  30  25 SW10      29.84R
ARTESIA        FAIR      73  28  19 SW20      29.87S
CARLSBAD       FAIR      69  31  24 SW9       29.87R
HOBBS          FAIR      64  30  27 W12       29.88R


$$




USA.gov is the U.S. government's official web portal to all federal, state and local government web resources and services.